Tracking 35280 objects as of 7-Sep-2026
HD Live streaming from Space Station
objects crossing your sky now

STARLINK-35666

Track STARLINK-35666 now!
10-day predictions
STARLINK-35666 is classified as:


NORAD ID: 66222
Int'l Code: 2025-244S
Launch date: October 28, 2025
Source: United States (US)
Launch site: AIR FORCE WESTERN TEST RANGE (AFWTR)
Your satellite tracking list
Your tracking list is empty




NASA's NSSDC Master Catalog

Two Line Element Set (TLE):
1 66222U 25244S   26249.85308808  .00014249  00000-0  43200-3 0  9990
2 66222  53.1583 107.2058 0001043 105.2060 254.9058 15.34404331 49419
Source of the keplerian elements: AFSPC